Palma De Mallorca, Spain

5:30 PM CEST on August 27, 2016 (GMT +0200)
Palma De Mallorca

Weather History for LEPA - December, 2012

Change the Weather History Date:

Tuesday, December 4, 2012

  Actual Average Record
Temperature  
Mean Temperature 50 °F -  
Max Temperature 62 °F 59 °F 71 °F (2006)
Min Temperature 39 °F 41 °F 37 °F (2000)
Degree Days  
Heating Degree Days 14    
Moisture  
Dew Point 44 °F    
Average Humidity 70    
Maximum Humidity 100    
Minimum Humidity 34    
Precipitation  
Precipitation 0.00 in 0.06 in - ()
Sea Level Pressure  
Sea Level Pressure 30.06 in    
Wind  
Wind Speed 5 mph ()    
Max Wind Speed 22 mph    
Max Gust Speed 33 mph    
Visibility 6.9 miles    
Events      
Averages and records for this station are not official NWS values.
T = Trace of Precipitation, MM = Missing Value Source: Averaged Metar Reports

Daily Weather History Graph

Daily Weather History Graph

Search for Another Location

Airport or City:

Trip Planner

Search our weather history database for the weather conditions in past years. The results will help you decide how hot, cold, wet, or windy it might be!

Date:

Astronomy

Dec. 04, 2012 Rise Set
Actual Time 7:53 AM CET 5:25 PM CET
Civil Twilight 7:23 AM CET 5:55 PM CET
Nautical Twilight 6:50 AM CET 6:28 PM CET
Astronomical Twilight 6:17 AM CET 7:01 PM CET
Moon 10:56 PM CET (12/4) 11:40 AM CET (12/4)
Length of Visible Light 10h 31m
Length of Day
9h 31m
Waning Gibbous, 72% of the Moon is Illuminated
Dec 4
Waning Gibbous
Dec 6
Last Quarter
Dec 13
New
Dec 20
First Quarter
Dec 28
Full

Hourly Weather History & Observations

Time (CET) Temp. Dew Point Humidity Pressure Visibility Wind Dir Wind Speed Gust Speed Precip Events Conditions
12:00 AM 44.6 °F 42.8 °F 93% 30.21 in - Variable 1.2 mph - N/A   Clear
12:30 AM 42.8 °F 41.0 °F 93% 30.18 in - NNE 1.2 mph - N/A   Clear
1:00 AM 41 °F 39 °F 89% 30.20 in 11 mi Calm Calm - -  
1:00 AM 42.8 °F 41.0 °F 93% 30.18 in - Calm Calm - N/A   Clear
1:30 AM 42.8 °F 42.8 °F 100% 30.18 in - Calm Calm - N/A   Clear
2:00 AM 41.0 °F 39.2 °F 93% 30.15 in - Calm Calm - N/A   Clear
2:30 AM 41.0 °F 39.2 °F 93% 30.15 in - Calm Calm - N/A   Clear
3:00 AM 41.0 °F 39.2 °F 93% 30.15 in - NNE 2.3 mph - N/A   Clear
3:30 AM 42.8 °F 41.0 °F 93% 30.12 in - Variable 1.2 mph - N/A   Clear
4:00 AM 42.8 °F 41.0 °F 93% 30.12 in - Variable 1.2 mph - N/A   Clear
4:30 AM 42.8 °F 42.8 °F 100% 30.09 in - ENE 2.3 mph - N/A   Clear
5:00 AM 42.8 °F 42.8 °F 100% 30.09 in - Calm Calm - N/A   Clear
5:30 AM 44.6 °F 42.8 °F 93% 30.06 in - Variable 2.3 mph - N/A   Clear
6:00 AM 51.8 °F 51.8 °F 100% 30.06 in - NW 5.8 mph - N/A   Clear
6:30 AM 51.8 °F 50.0 °F 94% 30.06 in 6.2 mi WSW 5.8 mph - N/A   Partly Cloudy
7:00 AM 50 °F 47 °F 84% 30.07 in 12 mi NNE 4.6 mph - -   Scattered Clouds
7:00 AM 51.8 °F 48.2 °F 88% 30.06 in 6.2 mi West 8.1 mph - N/A   Partly Cloudy
7:30 AM 53.6 °F 50.0 °F 88% 30.06 in 6.2 mi WSW 9.2 mph - N/A   Partly Cloudy
8:00 AM 53.6 °F 50.0 °F 88% 30.04 in 6.2 mi WSW 6.9 mph - N/A   Partly Cloudy
8:30 AM 57.2 °F 51.8 °F 82% 30.06 in 6.2 mi West 4.6 mph - N/A   Partly Cloudy
9:00 AM 57.2 °F 50.0 °F 77% 30.04 in 6.2 mi West 8.1 mph - N/A   Partly Cloudy
9:30 AM 57.2 °F 50.0 °F 77% 30.04 in 6.2 mi SW 6.9 mph - N/A   Partly Cloudy
10:00 AM 57.2 °F 50.0 °F 77% 30.04 in 6.2 mi SW 4.6 mph - N/A   Partly Cloudy
10:30 AM 59.0 °F 51.8 °F 77% 30.04 in 6.2 mi WSW 8.1 mph - N/A   Partly Cloudy
11:00 AM 60.8 °F 48.2 °F 63% 30.04 in 6.2 mi WSW 8.1 mph - N/A   Partly Cloudy
11:30 AM 60.8 °F 50.0 °F 68% 30.04 in 6.2 mi West 10.4 mph - N/A   Partly Cloudy
12:00 PM 60.8 °F 48.2 °F 63% 30.04 in 6.2 mi West 9.2 mph - N/A   Partly Cloudy
12:30 PM 60.8 °F 46.4 °F 59% 30.01 in 6.2 mi WNW 6.9 mph - N/A   Partly Cloudy
1:00 PM 60 °F 43 °F 42% 30.02 in 12 mi WNW 9.2 mph - -   Overcast
1:00 PM 60.8 °F 46.4 °F 59% 30.01 in 6.2 mi WNW 9.2 mph - N/A   Partly Cloudy
1:30 PM 60.8 °F 46.4 °F 59% 30.01 in 6.2 mi West 12.7 mph - N/A   Partly Cloudy
2:00 PM 60.8 °F 44.6 °F 55% 30.01 in 6.2 mi West 12.7 mph - N/A   Partly Cloudy
2:30 PM 60.8 °F 46.4 °F 59% 29.98 in 6.2 mi West 13.8 mph - N/A   Partly Cloudy
3:00 PM 62.6 °F 44.6 °F 52% 29.98 in 6.2 mi WNW 17.3 mph - N/A   Partly Cloudy
3:30 PM 60.8 °F 44.6 °F 55% 29.98 in 6.2 mi NW 19.6 mph 33.4 mph N/A   Partly Cloudy
4:00 PM 60.8 °F 44.6 °F 55% 29.98 in 6.2 mi NW 21.9 mph - N/A   Partly Cloudy
4:30 PM 60.8 °F 42.8 °F 52% 30.01 in 6.2 mi NW 16.1 mph - N/A   Partly Cloudy
5:00 PM 59.0 °F 42.8 °F 55% 29.98 in 6.2 mi WNW 15.0 mph 26.5 mph N/A   Partly Cloudy
5:30 PM 59.0 °F 42.8 °F 55% 30.01 in 6.2 mi NW 17.3 mph - N/A   Partly Cloudy
6:00 PM 59.0 °F 42.8 °F 55% 30.01 in 6.2 mi WNW 8.1 mph - N/A   Partly Cloudy
6:30 PM 59.0 °F 37.4 °F 45% 30.01 in 6.2 mi WNW 15.0 mph 28.8 mph N/A   Partly Cloudy
7:00 PM 57 °F 36 °F 34% 30.01 in 16 mi West 11.5 mph - -   Scattered Clouds
7:00 PM 59.0 °F 41.0 °F 51% 30.01 in 6.2 mi WNW 15.0 mph - N/A   Partly Cloudy
7:30 PM 59.0 °F 39.2 °F 48% 30.01 in 6.2 mi WNW 10.4 mph 21.9 mph N/A   Partly Cloudy
8:00 PM 59.0 °F 39.2 °F 48% 30.04 in 6.2 mi WNW 10.4 mph - N/A   Partly Cloudy
8:30 PM 59.0 °F 37.4 °F 45% 30.04 in 6.2 mi WNW 15.0 mph 26.5 mph N/A   Partly Cloudy
9:00 PM 57.2 °F 35.6 °F 44% 30.04 in 6.2 mi NW 11.5 mph - N/A   Partly Cloudy
9:30 PM 57.2 °F 39.2 °F 51% 30.04 in 6.2 mi WNW 8.1 mph - N/A   Partly Cloudy
10:00 PM 57.2 °F 39.2 °F 51% 30.04 in 6.2 mi NW 4.6 mph 16.1 mph N/A   Partly Cloudy
10:30 PM 57.2 °F 37.4 °F 48% 30.04 in 6.2 mi NW 10.4 mph - N/A   Partly Cloudy
11:00 PM 57.2 °F 35.6 °F 44% 30.04 in 6.2 mi NW 15.0 mph 27.6 mph N/A   Partly Cloudy
11:30 PM 57.2 °F 35.6 °F 44% 30.04 in 6.2 mi NNW 10.4 mph - N/A   Partly Cloudy